Voltar ao catálogo

NPP

AtivoMeteoSSO
NORAD 37849·PAYLOAD·🇺🇸 United States

Lançado Oct 28, 2011 de Vandenberg Space Force Base

Loading…

Próximas Passagens (próximas 24 horas)

TLE

AtualizadoSource: Space-Track

Época: Sep 14, 2026, 15:30 UTC

1 37849U 11061A   26257.64589819  .00000060  00000-0  49468-4 0  9993
2 37849  98.8002 197.9275 0002821  74.9553 285.1935 14.19533123771130

Acompanhe NPP em tempo real com AllMySat

Download on the App Store